DELTA 1 DEB, 10707

Orbit data source: Space-Track

DELTA 1 DEB, 10707 is space debris in LEO originally from a launch on Thu, 29 Jul 1976 UTC launched from the Air Force Western Test Range (AFWTR). Debris objects in space refer to the collection of defunct objects orbiting the Earth. Examples of debris include non-operational satellites, rocket bodies, and fragments generated from explosions, collisions, or faulty payload assembly.

Loading next visibility...
Identifier
10707, 1976-077AC
Orbit
LEO
Country
Flag of USUS
Related business
Manufacturer
Unknown
Mission
Spacecraft
Bus & Motor
Unknown
Mass
Unknown
Launch date (UTC)
1976-07-29 (49 years ago)
Launch vehicle
Unknown
Launch site
Air Force Western Test Range (AFWTR)
Object type
Payload
Rocket body
Debris
Shape & HBR
Unknown shape, 0.1 m
Radar Cross Section
Small (<0.1 m²)

Expand to show TLE details & history
Last TLE update: 1 day ago

TLE from 1 day ago
0 DELTA 1 DEB
1 10707U 76077AC  25312.01698343  .00000057  00000-0  11255-2 0  9997
2 10707 102.2085 333.6130 0264365 319.8786  65.4507 11.98347979125869
Epoch: 2025-11-08T00:24Z
TLE epoch observation values (Epoch: 2025-11-08T00:24:27.368Z)
Latitude
27.47052°
Longitude
-86.38114°
Altitude
1,607.394 km
Speed
7.105 km/s
True Right ascension
21h 48m 44s
True Declination
27° 20' 42"
Sunlit
Object was in daylight at epoch
Visualization orbit readout
Latitude
Unknown
Longitude
Unknown
Altitude
Unknown
Speed
Unknown
Apparent Right ascension
Unknown
Apparent Declination
Unknown
Sunlit
N/A
Visualization observer readout
Local Sidereal Time
20:44:30
Azimuth
Unknown
Elevation
Unknown
Doppler factor
Unknown
Orbital elements
Apogee altitude
1,899.09 km
Perigee altitude
1,472.72 km
Semi-major axis
8,064.042 km
Eccentricity
0.02644
Inclination
102.2085°
RAAN
333.613°
Arg. of periapsis
319.8786°
True anomaly
68.24348°
Mean anomaly
65.4507°
Eccentric anomaly
66.84337°
Mean motion
2.99719 °/min
Orbital period
120.11 mins
BSTAR
0.0011255
Loading maneuver chart data...
Computing Atmospheric mass density...
Loading historical data...
Loading historical data...
Loading historical data...
Loading historical data...
Loading historical data...
Loading historical data...
Loading historical data...

Documentation

Showing up to 5 results
|